Voltar ao catálogo

APRIZESAT 2

AtivoComunicaçõesSSO
NORAD 28366·PAYLOAD·🇺🇸 United States

Lançado Jun 29, 2004 de Baikonur Cosmodrome

Loading…

Próximas Passagens (próximas 24 horas)

TLE

AtualizadoSource: Space-Track

Época: Sep 14, 2026, 09:58 UTC

1 28366U 04025A   26257.41557155  .00000074  00000-0  36205-4 0  9992
2 28366  98.1125  58.3968 0105076 341.4380  18.2987 14.38067112164463

Acompanhe APRIZESAT 2 em tempo real com AllMySat

Download on the App Store